Wind_Speed
38 38 38 35 35 29 17 14 10 4 6 12 18 18 18 17 13 6 10 8 7 5 5 9 7 4 4 5 6 7 6 5 6 5 7 5 2 2 2 5 9 9 9
36 38 40 35 34 25 14 16 7 8 13 17 16 17 15 13 5 8 12 7 5 2 5 8 10 8 5 4 2 1 1 2 2 4 3 4 5 2 2 6 9 10 10
39 38 37 32 27 21 15 8 4 13 19 18 17 17 7 5 9 18 12 7 5 4 6 12 9 7 8 10 11 9 8 8 8 6 5 4 5 3 1 6 8 11 10
40 41 34 30 24 19 12 5 9 16 17 17 16 18 16 13 15 17 10 6 5 11 14 14 11 9 9 11 12 12 12 11 11 10 8 6 6 2 2 8 9 12 10
40 34 30 28 20 16 8 7 13 17 16 18 19 20 17 16 16 13 8 6 10 14 14 14 14 12 10 12 13 12 10 8 8 8 10 9 8 8 9 10 9 10 8
33 30 28 25 16 12 8 10 15 17 17 17 21 20 20 18 15 11 7 8 11 13 17 18 18 13 10 15 14 10 3 2 3 5 7 7 7 5 4 6 7 8 9
29 26 23 19 13 8 8 12 14 14 15 16 18 18 17 16 14 12 13 14 14 16 17 19 22 20 14 20 21 13 8 3 1 2 2 6 7 6 4 6 6 8 7
25 21 20 13 10 7 10 11 13 14 13 15 17 14 14 14 14 15 14 12 13 14 15 19 20 26 23 22 26 24 17 8 3 4 3 3 5 8 9 7 6 8 7
21 18 18 8 4 9 9 10 12 13 12 13 12 10 12 10 8 10 10 9 10 14 17 21 25 26 27 27 25 23 20 17 13 9 4 0 3 3 4 6 7 8 7
19 17 11 2 3 9 9 10 11 14 14 13 12 13 16 12 9 8 9 12 14 18 27 35 40 41 35 31 30 26 21 18 14 7 4 3 3 2 5 7 7 7 8
22 19 5 3 10 9 10 11 12 13 16 16 19 22 23 21 21 19 17 19 22 30 37 39 41 40 35 29 29 28 29 28 24 15 10 7 5 4 7 8 8 12 11
21 6 10 10 13 12 10 11 14 12 15 17 22 29 29 26 26 25 23 24 28 35 37 42 43 42 36 35 35 34 35 34 29 19 16 14 11 10 10 10 11 12 12
5 15 14 15 14 12 11 12 13 15 16 16 15 16 18 25 26 30 27 32 32 39 36 40 39 37 36 36 35 33 34 37 38 37 29 25 24 20 16 16 18 18 15
15 15 17 18 15 11 13 15 14 12 15 17 14 17 20 27 29 31 36 33 34 32 29 28 32 33 35 34 36 37 35 35 37 40 40 41 35 34 31 28 28 25 18
15 16 19 18 14 12 15 14 17 13 15 21 21 21 26 28 29 27 29 28 25 20 21 21 26 28 31 33 36 34 31 31 33 33 37 37 34 35 34 34 31 33 25
15 16 18 17 13 13 16 14 17 17 18 21 23 23 29 28 26 25 24 22 20 17 12 12 23 24 29 31 34 35 32 28 29 28 33 34 30 32 34 37 38 35 33
14 15 17 16 15 13 15 17 20 17 19 21 24 26 27 25 22 21 18 17 18 19 14 13 18 24 24 26 30 34 32 27 25 28 29 32 28 38 40 44 43 40 36
14 14 16 15 15 15 16 17 19 17 21 22 25 24 26 22 19 18 13 16 19 18 19 15 16 19 22 23 27 29 32 30 23 25 24 27 33 34 37 38 43 43 46
13 14 17 16 15 16 19 17 19 16 23 23 23 22 23 21 19 16 11 14 17 19 21 21 20 20 22 23 26 28 30 30 22 17 19 22 23 25 27 28 32 36 34
11 11 18 15 14 17 19 19 20 19 21 22 22 20 20 19 17 15 15 13 14 17 18 19 20 19 22 20 25 26 29 29 26 17 15 20 19 21 26 25 21 23 26
10 10 17 13 14 19 22 20 19 21 22 22 22 23 19 16 13 11 12 12 14 15 16 16 18 17 19 21 21 24 25 26 29 28 15 14 14 14 17 20 17 21 27
12 14 15 15 15 22 23 22 19 19 23 21 19 18 16 13 11 9 9 10 11 14 14 15 16 17 17 18 17 20 21 22 25 26 28 16 15 15 17 18 17 19 24
12 16 13 16 17 21 25 23 20 20 20 18 17 15 14 11 10 9 8 6 8 11 12 13 14 16 16 16 17 18 19 21 23 23 23 22 21 17 13 13 13 13 14
12 19 17 18 17 23 25 22 21 22 19 16 17 15 13 12 11 9 5 4 4 6 8 9 10 11 12 13 15 17 19 20 21 21 21 22 22 21 20 18 18 18 18
11 18 20 19 20 23 25 22 22 22 19 18 19 14 14 13 11 9 6 3 2 1 4 6 7 8 8 11 14 17 18 18 20 24 26 25 24 24 22 22 22 23 22
17 18 21 21 23 22 24 23 23 23 22 21 19 16 16 14 12 11 8 5 3 1 1 3 5 8 11 13 14 17 19 21 22 23 24 25 27 29 29 28 26 24 24
Wind_Direction
345 344 345 340 345 346 349 347 339 16 21 347 335 326 317 316 308 317 142 115 97 78 47 45 25 26 57 55 58 70 80 85 87 78 68 37 75 352 292 311 329 322 321
340 341 342 341 346 350 351 350 3 26 6 354 343 325 314 313 315 147 133 121 100 87 13 4 350 350 339 349 336 7 20 350 325 340 327 357 357 154 338 352 4 1 336
335 338 342 345 346 349 354 7 19 13 6 1 349 341 350 91 137 141 143 124 101 30 7 348 346 336 328 329 320 302 283 272 278 289 300 323 335 306 34 11 8 6 351
331 333 341 344 344 352 1 13 32 18 19 24 27 50 74 110 132 136 142 98 37 12 5 356 358 352 331 328 324 311 288 273 267 275 281 293 285 301 287 328 347 352 355
328 336 342 344 345 357 12 32 23 23 38 37 52 65 83 104 118 133 127 63 28 20 15 19 13 5 352 350 341 324 286 278 254 262 274 285 277 281 295 303 319 337 350
330 334 340 346 348 4 41 38 26 29 40 43 60 71 85 93 107 119 104 59 59 47 54 38 33 26 35 10 345 343 84 212 264 291 271 261 256 273 316 335 327 331 341
330 335 341 348 352 30 69 37 33 45 49 53 63 74 84 92 101 100 90 79 64 60 53 48 39 36 39 35 47 54 64 68 333 354 307 239 233 263 312 310 335 343 334
328 334 343 352 351 65 68 39 48 57 56 59 54 68 80 87 92 90 86 82 70 51 49 50 50 49 52 57 62 64 59 62 38 15 24 268 258 278 267 280 317 323 340
325 331 338 355 7 96 73 54 60 64 64 55 49 69 71 61 76 93 91 89 67 53 52 55 62 62 55 59 62 60 56 51 58 56 45 214 268 253 269 273 296 305 315
316 316 328 359 88 109 81 80 86 72 63 56 71 72 68 77 80 79 80 83 76 72 82 86 73 67 67 64 61 56 53 44 37 32 21 352 328 298 280 283 296 319 311
304 301 251 137 132 114 95 101 114 87 70 72 74 80 80 77 76 79 88 93 94 95 91 87 75 64 63 61 56 58 56 56 50 45 43 26 15 333 319 326 325 319 322
302 211 165 142 132 118 107 118 114 105 84 78 91 85 86 74 82 81 88 91 97 105 94 79 74 59 64 66 71 63 55 46 50 47 44 40 33 28 26 17 357 340 332
170 156 146 145 137 124 121 130 134 101 105 101 101 74 85 77 82 83 86 97 102 102 88 89 65 54 56 55 67 60 54 58 57 60 61 56 50 45 40 35 39 33 17
149 146 144 148 146 131 128 134 138 122 107 107 100 98 92 88 87 95 97 108 106 104 91 72 54 57 55 55 57 60 63 61 59 59 57 58 60 58 55 52 46 41 34
148 147 144 145 150 135 133 135 143 124 119 115 110 99 91 97 101 102 97 101 98 90 83 78 40 48 53 58 56 61 67 63 56 55 55 58 59 54 52 46 48 47 42
144 152 151 151 152 139 138 137 140 129 124 121 115 105 105 106 107 105 95 84 88 82 72 58 34 59 56 60 56 56 61 65 62 63 58 66 59 53 49 47 47 42 40
146 152 152 159 152 143 143 141 142 141 131 124 119 115 115 112 114 109 90 76 63 68 82 32 53 77 67 62 60 55 55 63 66 61 63 65 57 59 57 53 53 57 52
151 152 157 167 153 150 147 149 147 143 134 131 129 126 119 115 110 109 103 72 77 69 63 66 73 78 78 67 61 55 58 59 68 58 70 58 65 60 58 59 54 58 64
160 161 169 172 157 158 153 155 153 155 145 137 139 130 120 114 110 108 101 85 74 68 74 73 71 74 66 61 58 57 55 54 54 52 70 67 60 57 56 58 60 52 64
166 172 176 169 166 164 159 156 156 157 149 150 142 132 124 120 111 105 99 92 79 70 73 72 68 69 63 55 56 54 52 51 50 56 63 57 61 60 45 46 47 59 62
161 186 181 170 172 168 162 160 157 162 153 154 143 136 136 127 117 107 101 89 77 73 69 72 74 65 62 53 46 51 46 46 46 43 42 50 41 44 31 41 44 48 45
158 189 195 173 180 176 166 164 163 169 170 159 154 147 140 137 130 113 96 82 75 83 84 74 68 64 58 52 39 35 34 36 40 41 41 42 40 28 33 39 41 46 40
176 190 198 187 185 182 174 172 171 174 171 162 158 158 150 152 142 135 118 89 76 84 84 71 60 57 48 38 32 30 24 22 25 26 29 36 40 23 2 353 3 7 15
189 184 197 199 196 189 184 180 181 183 178 174 165 158 166 158 158 150 133 111 82 74 81 71 56 47 38 25 16 10 12 14 14 13 10 12 14 11 10 2 340 323 322
212 194 205 199 198 197 191 188 186 191 189 187 183 185 181 174 174 175 179 178 162 102 82 60 42 30 12 6 5 358 357 359 360 1 0 357 353 347 346 345 343 341 339
209 200 209 209 208 203 201 190 194 195 197 197 193 198 198 198 193 196 196 205 217 241 34 355 349 350 344 348 351 352 350 352 355 349 345 342 337 333 330 326 323 320 321
Height
10980 10976 10973 10967 10962 10955 10952 10952 10951 10949 10948 10945 10941 10938 10936 10935 10935 10935 10934 10936 10937 10937 10936 10934 10933 10932 10931 10929 10928 10926 10924 10923 10924 10924 10925 10925 10926 10926 10926 10927 10925 10923 10922
10979 10976 10971 10964 10960 10955 10952 10949 10949 10949 10948 10946 10942 10938 10935 10935 10934 10936 10937 10938 10938 10937 10936 10934 10932 10931 10930 10930 10929 10928 10927 10926 10925 10925 10926 10926 10927 10927 10927 10927 10925 10923 10922
10978 10973 10969 10966 10961 10957 10955 10952 10951 10948 10945 10942 10939 10935 10932 10933 10935 10937 10938 10939 10939 10938 10936 10933 10931 10931 10930 10929 10928 10927 10927 10927 10926 10926 10926 10926 10927 10925 10926 10926 10925 10923 10921
10976 10972 10968 10965 10961 10958 10955 10954 10954 10951 10948 10944 10940 10935 10933 10935 10936 10938 10940 10941 10940 10939 10936 10934 10931 10930 10929 10927 10926 10926 10925 10926 10926 10926 10926 10926 10927 10926 10926 10925 10925 10924 10921
10974 10969 10966 10963 10960 10957 10956 10955 10953 10952 10950 10947 10943 10940 10938 10938 10939 10942 10943 10942 10942 10941 10938 10935 10933 10931 10928 10926 10924 10922 10922 10924 10925 10925 10925 10927 10927 10926 10926 10925 10924 10923 10921
10972 10969 10965 10962 10959 10957 10957 10956 10953 10952 10951 10949 10947 10944 10943 10943 10943 10945 10945 10945 10944 10943 10941 10939 10936 10932 10930 10927 10923 10920 10920 10922 10925 10925 10925 10926 10926 10926 10925 10924 10923 10922 10920
10971 10967 10964 10961 10959 10958 10958 10957 10954 10954 10953 10952 10951 10949 10948 10947 10946 10946 10946 10946 10946 10945 10944 10942 10939 10935 10932 10928 10922 10921 10923 10924 10925 10925 10925 10925 10925 10925 10924 10924 10923 10922 10920
10968 10966 10963 10961 10960 10960 10960 10958 10956 10956 10956 10955 10954 10953 10952 10950 10950 10948 10949 10949 10949 10948 10947 10945 10942 10939 10935 10932 10927 10925 10925 10925 10925 10925 10925 10925 10925 10925 10923 10923 10922 10921 10919
10967 10965 10963 10962 10962 10962 10961 10960 10959 10959 10959 10958 10958 10956 10955 10955 10953 10952 10951 10951 10950 10950 10950 10948 10946 10943 10940 10936 10932 10929 10928 10927 10926 10926 10925 10924 10923 10922 10922 10921 10920 10919 10918
10965 10965 10963 10962 10964 10964 10963 10962 10962 10963 10962 10962 10961 10959 10958 10957 10955 10954 10953 10952 10953 10954 10953 10952 10951 10949 10944 10941 10937 10935 10932 10931 10929 10927 10925 10924 10923 10922 10922 10921 10920 10919 10918
10962 10961 10961 10963 10965 10965 10965 10965 10965 10966 10966 10966 10964 10961 10960 10959 10957 10955 10954 10955 10954 10957 10957 10955 10955 10954 10950 10946 10942 10940 10937 10934 10931 10927 10926 10924 10923 10923 10923 10922 10921 10920 10917
10957 10956 10959 10963 10965 10966 10966 10967 10968 10969 10969 10970 10969 10965 10964 10964 10962 10960 10959 10959 10959 10960 10960 10959 10959 10958 10956 10953 10949 10946 10942 10938 10934 10930 10927 10926 10925 10923 10923 10922 10921 10919 10918
10954 10955 10958 10963 10965 10967 10967 10969 10970 10971 10971 10972 10972 10970 10969 10968 10967 10966 10966 10965 10966 10965 10965 10964 10964 10962 10960 10958 10954 10951 10946 10942 10938 10933 10931 10930 10928 10926 10926 10924 10922 10920 10917
10955 10956 10960 10964 10966 10967 10968 10971 10972 10973 10975 10975 10975 10974 10973 10973 10973 10974 10973 10972 10972 10972 10969 10969 10968 10967 10965 10962 10958 10955 10950 10947 10944 10940 10937 10934 10932 10932 10930 10928 10925 10923 10920
10957 10958 10961 10965 10967 10968 10969 10972 10974 10976 10978 10978 10978 10978 10976 10977 10979 10980 10979 10978 10978 10977 10975 10974 10973 10971 10968 10966 10963 10959 10955 10953 10950 10946 10944 10940 10940 10938 10935 10932 10929 10926 10922
10959 10961 10963 10967 10969 10969 10971 10973 10975 10978 10980 10980 10980 10980 10980 10982 10983 10984 10985 10984 10983 10982 10980 10978 10976 10975 10973 10972 10968 10964 10961 10958 10956 10952 10950 10948 10946 10943 10941 10937 10933 10929 10925
10962 10964 10966 10969 10970 10971 10972 10975 10977 10980 10982 10982 10983 10983 10983 10985 10988 10988 10988 10988 10987 10985 10985 10982 10981 10980 10980 10977 10973 10970 10967 10963 10962 10958 10956 10954 10952 10950 10947 10943 10939 10934 10930
10965 10966 10969 10971 10972 10972 10975 10977 10979 10982 10983 10985 10987 10987 10986 10989 10991 10991 10993 10993 10991 10990 10989 10988 10985 10985 10983 10981 10978 10975 10973 10969 10967 10963 10961 10960 10957 10955 10953 10950 10947 10942 10938
10967 10968 10971 10972 10973 10974 10977 10979 10981 10984 10985 10987 10990 10990 10990 10992 10994 10995 10996 10995 10993 10993 10992 10992 10989 10988 10987 10985 10982 10981 10979 10975 10972 10969 10967 10965 10963 10961 10958 10956 10954 10950 10945
10969 10969 10972 10974 10975 10976 10978 10981 10983 10986 10988 10990 10992 10992 10993 10995 10996 10997 10997 10997 10997 10996 10996 10995 10994 10992 10989 10988 10986 10984 10982 10981 10978 10975 10972 10970 10968 10966 10963 10961 10958 10954 10951
10969 10971 10974 10975 10976 10979 10980 10982 10984 10987 10989 10992 10992 10993 10996 10998 10998 11000 10999 11000 10999 10999 10997 10997 10996 10995 10991 10991 10990 10988 10986 10986 10983 10979 10976 10975 10972 10970 10968 10966 10962 10959 10955
10969 10972 10974 10975 10977 10979 10980 10983 10985 10987 10991 10992 10993 10995 10998 10999 11000 11000 11002 11003 11003 11002 11002 11000 10999 10997 10995 10994 10993 10991 10991 10988 10986 10984 10981 10978 10976 10973 10971 10969 10966 10963 10959
10967 10972 10974 10976 10978 10979 10980 10984 10986 10988 10991 10992 10994 10997 10998 11001 11002 11002 11003 11003 11004 11005 11004 11003 11002 10999 10998 10997 10996 10995 10994 10991 10989 10987 10984 10982 10979 10976 10974 10971 10968 10965 10962
10966 10971 10974 10977 10978 10979 10981 10983 10987 10989 10991 10993 10995 10997 10999 11001 11003 11003 11004 11004 11005 11006 11006 11005 11004 11003 11002 11000 10998 10997 10995 10993 10990 10989 10986 10982 10980 10978 10976 10973 10968 10964 10962
10964 10967 10973 10976 10979 10980 10982 10983 10987 10989 10992 10994 10996 10998 11000 11002 11003 11004 11004 11005 11006 11007 11007 11007 11006 11005 11003 11002 11000 10998 10995 10994 10991 10987 10985 10981 10979 10977 10974 10972 10968 10964 10961
10963 10965 10970 10973 10977 10979 10982 10984 10988 10990 10992 10994 10997 10998 11000 11002 11003 11004 11005 11006 11006 11007 11008 11008 11007 11006 11004 11002 11000 10998 10995 10992 10990 10987 10984 10980 10977 10973 10971 10968 10964 10961 10959